COSMOS 2251 DEB, 34563

Orbit data source: Space-Track

COSMOS 2251 DEB, 34563 is space debris in LEO originally from a launch on Wed, 16 Jun 1993 UTC launched from the Plesetsk Missile And Space Complex (PKMTR). The debris from Iridium 33, an American commercial communications satellite, has been tracked extensively since its accidental collision with the defunct Russian satellite Cosmos 2251 in 2009. This event, occurring at high speed in low Earth orbit (LEO), generated thousands of pieces of space debris, significantly increasing the risk of further collisions. The Iridium 33 debris cloud has impacted space traffic management and orbital debris mitigation strategies, making it a subject of ongoing study in space situational awareness.

Loading next visibility...
Identifier
34563, 1993-036UZ
Orbit
LEO
Country
Flag of CISCIS
Related business
Manufacturer
Unknown
Mission
Spacecraft
Bus & Motor
Unknown
Mass
Unknown
Launch date (UTC)
1993-06-16 (33 years ago)
Launch vehicle
Unknown
Launch site
Plesetsk Missile And Space Complex (PKMTR)
Object type
Payload
Rocket body
Debris
Shape & HBR
Unknown shape, 0.1 m
Radar Cross Section
Medium (>0.1 m² and <1 m²)

Expand to show TLE details & history
Last TLE update: 8 hours ago

TLE from 8 hours ago
0 COSMOS 2251 DEB
1 34563U 93036UZ  26208.26779532  .00001285  00000-0  35866-3 0  9998
2 34563  74.0384 140.4993 0013583 186.8134 325.0855 14.47214541914735
Epoch: 2026-07-27T06:25Z
TLE epoch observation values (Epoch: 2026-07-27T06:25:37.515Z)
Latitude
27.05828°
Longitude
-89.21655°
Altitude
729.844 km
Speed
7.497 km/s
True Right ascension
20h 48m 34s
True Declination
26° 55' 07"
Sunlit
Object was in full shadow at epoch
Visualization orbit readout
Latitude
Unknown
Longitude
Unknown
Altitude
Unknown
Speed
Unknown
Apparent Right ascension
Unknown
Apparent Declination
Unknown
Sunlit
N/A
Visualization observer readout
Local Sidereal Time
03:53:34
Azimuth
Unknown
Elevation
Unknown
Doppler factor
Unknown
Orbital elements
Apogee altitude
742.03 km
Perigee altitude
722.714 km
Semi-major axis
7,110.509 km
Eccentricity
0.00136
Inclination
74.0384°
RAAN
140.4993°
Arg. of periapsis
186.8134°
True anomaly
324.99629°
Mean anomaly
325.0855°
Eccentric anomaly
325.04091°
Mean motion
3.61986 °/min
Orbital period
99.45 mins
BSTAR
0.00035866
Loading maneuver chart data...
Computing Atmospheric mass density...

Documentation

Showing up to 5 results
|